Dayton, OH

12:03 PM EST on February 25, 2017 (GMT -0500)
Wright-Patterson Air Force Base

Weather History for KFFO - December, 2014

Change the Weather History Date:

Friday, December 12, 2014

  Actual Average Record
Temperature  
Mean Temperature 30 °F -  
Max Temperature 42 °F 40 °F 69 °F (2015)
Min Temperature 19 °F 26 °F 3 °F (2013)
Degree Days  
Heating Degree Days 34    
Moisture  
Dew Point 25 °F    
Average Humidity 85    
Maximum Humidity 100    
Minimum Humidity 52    
Precipitation  
Precipitation 0.00 in - - ()
Sea Level Pressure  
Sea Level Pressure 30.30 in    
Wind  
Wind Speed 6 mph (WSW)    
Max Wind Speed 15 mph    
Max Gust Speed 18 mph    
Visibility 7 miles    
Events      
Averages and records for this station are not official NWS values.
T = Trace of Precipitation, MM = Missing Value Source: NWS Daily Summary

Daily Weather History Graph

Daily Weather History Graph

Search for Another Location

Airport or City:

Trip Planner

Search our weather history database for the weather conditions in past years. The results will help you decide how hot, cold, wet, or windy it might be!

Date:

Astronomy

Dec. 12, 2014 Rise Set
Actual Time 7:48 AM EST 5:11 PM EST
Civil Twilight 7:17 AM EST 5:42 PM EST
Nautical Twilight 6:43 AM EST 6:15 PM EST
Astronomical Twilight 6:11 AM EST 6:48 PM EST
Moon 11:16 PM EST (12/12) 11:42 AM EST (12/12)
Length of Visible Light 10h 24m
Length of Day
9h 23m
Waning Gibbous, 67% of the Moon is Illuminated
Dec 12
Waning Gibbous
Dec 14
Last Quarter
Dec 21
New
Dec 28
First Quarter
Jan 4
Full

Hourly Weather History & Observations

Time (EST) Temp. Windchill Dew Point Humidity Pressure Visibility Wind Dir Wind Speed Gust Speed Precip Events Conditions
12:58 AM 25.0 °F 20.7 °F 22.3 °F 89% 30.26 in 10.0 mi West 3.5 mph - N/A   Clear
1:58 AM 24.4 °F 18.6 °F 21.9 °F 90% 30.27 in 10.0 mi West 4.6 mph - N/A   Clear
2:58 AM 23.4 °F 18.9 °F 21.2 °F 91% 30.27 in 10.0 mi WSW 3.5 mph - N/A   Clear
3:58 AM 21.4 °F 15.1 °F 19.2 °F 91% 30.29 in 10.0 mi SW 4.6 mph - N/A   Clear
4:18 AM 21.2 °F 13.6 °F 19.4 °F 93% 30.25 in 10.0 mi SW 5.8 mph - N/A   Clear
4:28 AM 21.2 °F 13.6 °F 19.4 °F 93% 30.25 in 10.0 mi SW 5.8 mph - N/A   Clear
4:58 AM 20.8 °F 14.4 °F 18.7 °F 91% 30.30 in 10.0 mi SW 4.6 mph - N/A   Clear
5:58 AM 21.2 °F 13.6 °F 19.2 °F 92% 30.32 in 9.0 mi SW 5.8 mph - N/A   Clear
6:18 AM 19.4 °F 10.4 °F 17.6 °F 93% 30.28 in 9.0 mi SW 6.9 mph - N/A   Clear
6:58 AM 21.0 °F 13.4 °F 19.0 °F 92% 30.32 in 10.0 mi SW 5.8 mph - N/A   Clear
7:08 AM 21.2 °F 13.6 °F 17.6 °F 86% 30.28 in 9.0 mi SW 5.8 mph - N/A   Clear
7:38 AM 19.4 °F 11.5 °F 17.6 °F 93% 30.29 in 8.0 mi SW 5.8 mph - N/A   Clear
7:58 AM 19.0 °F 11.1 °F 17.1 °F 92% 30.34 in 3.0 mi WSW 5.8 mph - N/A   Clear
8:18 AM 19.4 °F 10.4 °F 17.6 °F 93% 30.29 in 4.0 mi SW 6.9 mph - N/A   Clear
8:58 AM 24.6 °F 17.7 °F 22.6 °F 92% 30.33 in 4.0 mi WSW 5.8 mph - N/A   Clear
9:58 AM 28.0 °F 20.0 °F 25.2 °F 89% 30.34 in 9.0 mi WSW 8.1 mph - N/A   Clear
10:41 AM 32.0 °F 23.6 °F 26.6 °F 80% 30.30 in 4.0 mi WSW 10.4 mph - N/A   Clear
10:58 AM 31.8 °F 24.6 °F 26.2 °F 80% 30.34 in 4.0 mi WSW 8.1 mph - N/A   Clear
11:58 AM 36.7 °F 30.5 °F 26.1 °F 65% 30.31 in 5.0 mi West 8.1 mph - N/A   Haze
12:58 PM 39.2 °F 32.5 °F 26.1 °F 59% 30.30 in 5.0 mi West 10.4 mph - N/A   Haze
1:58 PM 41.5 °F 35.4 °F 26.6 °F 55% 30.29 in 5.0 mi WSW 10.4 mph - N/A   Haze
2:58 PM 42.6 °F 37.2 °F 26.2 °F 52% 30.27 in 5.0 mi West 9.2 mph - N/A   Haze
3:58 PM 42.8 °F 37.5 °F 27.0 °F 54% 30.28 in 5.0 mi SW 9.2 mph - N/A   Haze
4:58 PM 39.6 °F 34.7 °F 27.3 °F 62% 30.31 in 5.0 mi West 6.9 mph - N/A   Haze
5:58 PM 35.1 °F 29.3 °F 27.9 °F 75% 30.31 in 5.0 mi WSW 6.9 mph - N/A   Haze
6:58 PM 34.0 °F 26.0 °F 28.6 °F 81% 30.31 in 7.0 mi WNW 10.4 mph - N/A   Clear
7:28 PM 32.0 °F 24.8 °F 30.2 °F 93% 30.28 in 7.0 mi West 8.1 mph - N/A   Mostly Cloudy
7:58 PM 33.1 °F 24.4 °F 30.2 °F 89% 30.32 in 7.0 mi WNW 11.5 mph 18.4 mph N/A   Overcast
8:08 PM 32.0 °F 23.6 °F 32.0 °F 100% 30.28 in 5.0 mi West 10.4 mph - N/A   Overcast
8:18 PM 32.0 °F 21.6 °F 32.0 °F 100% 30.28 in 10.0 mi West 15.0 mph - N/A   Overcast
8:58 PM 32.7 °F 24.5 °F 30.9 °F 93% 30.32 in 5.0 mi West 10.4 mph - N/A   Overcast
9:58 PM 32.7 °F 26.4 °F 30.7 °F 92% 30.32 in 10.0 mi WNW 6.9 mph - N/A   Overcast
10:58 PM 32.4 °F 26.0 °F 30.6 °F 93% 30.31 in 10.0 mi West 6.9 mph - N/A   Overcast
11:28 PM 32.0 °F 24.2 °F 32.0 °F 100% 30.27 in 7.0 mi WNW 9.2 mph - N/A   Overcast
11:58 PM 32.0 °F 23.0 °F 30.7 °F 95% 30.30 in 7.0 mi West 11.5 mph - N/A   Overcast